sat.trackr.live / text

‹ back to catalog

ONEWEB-0388

NORAD 49314 · 2021-090AM

PAYLOAD ACTIVE UNKNOWN

§ Identity

Operator
Country
UK
Launch date
2021-10-14
Launch site
VOSTO
Launch vehicle
Mass (kg)
RCS (m²)

Purposes: comms

External: N2YO · Heavens-Above · Gunter

§ Orbital elements

Epoch: 2026-09-20T00:39:08.428032Z

Period
109.11 min
Inclination
87.9108°
Eccentricity
0.0002022
Mean motion
13.19724754 rev/d
Perigee alt
1,184.2 km
Apogee alt
1,187.3 km
Semi-major
7,563.9 km
B*
-4.2427e-4
RAAN
286.0714°
Arg perigee
93.4407°
Mean anomaly
266.6957°
Rev number
23,892

§ Raw data

ONEWEB-03881 49314U 21090AM  26263.02718088 -.00000157  00000+0 -42427-3 0  99922 49314  87.9108 286.0714 0002022  93.4407 266.6957 13.19724754238925

JSON: /api/v1/satellites/49314 · /tle

For live sub-satellite position, see the globe view (requires WebGL).

§ Visibility from observer

Set your observer location to see the next 7 days of passes ≥ 10°. The values pass through the URL so the page stays shareable.

No JS? Fill the form by hand. The geolocation button needs JavaScript.